Regional Weather Roundup
Issued by NWS

Home | Current Version | Previous Version | Graphics & Text | Print | Product List | Glossary On
Versions: 1 2 3 4 5 6 7 8 9 10 11 12 13 14 15 16 17 18 19 20 21 22 23 24 25 26 27 28 29 30 31 32 33 34 35 36 37 38 39 40 41 42 43 44 45 46 47 48 49 50
504
ASUS43 KDMX 211510
RWRIA

WEATHER ROUNDUP FOR IOWA
NATIONAL WEATHER SERVICE DES MOINES IA
  ISSUED BY NWS QUAD CITIES IA IL
900 AM CST TUE FEB 21 2017

NOTE: "FAIR" INDICATES FEW OR NO CLOUDS BELOW 12,000 FEET WITH NO
SIGNIFICANT WEATHER AND/OR OBSTRUCTIONS TO VISIBILITY.

* - THESE STATIONS ARE NOT NWS STATIONS...THUS NOT UNDER NWS
QUALITY CONTROL.  THEY ALSO DO NOT REPORT WEATHER SUCH
AS PRECIPITATION OR FOG.

IAZ001>003-012>014-020>022-031>034-043>046-211600-
   NORTHWEST IOWA

CITY           SKY/WX    TMP DP  RH WIND       PRES   REMARKS
CARROLL *      SUNNY     43  43 100 SW8       29.96F WCI  38
CHEROKEE *     SUNNY     38  38 100 S5        29.94S WCI  34
DENNISON *     SUNNY     37  37 100 CALM      29.95S FOG
LE MARS *      SUNNY     39  37  93 S10       29.93S WCI  32
SHELDON *      SUNNY     41  41 100 S14       29.88F WCI  33
SIOUX CITY     SUNNY     39  37  92 SE8       29.94S WCI  33
SPENCER        SUNNY     41  38  89 S10       29.91S WCI  35
STORM LAKE *   SUNNY     41  39  93 SW9       29.94S WCI  35
$$

IAZ055>058-069>071-079>083-090>094-211600-
   SOUTHWEST IOWA

CITY           SKY/WX    TMP DP  RH WIND       PRES   REMARKS
ATLANTIC *     SUNNY     41  39  93 S5        30.00F WCI  38
CLARINDA *     SUNNY     37  37 100 CALM      30.04R FOG
COUNCIL BLFS * SUNNY     41  41 100 S9        29.99F WCI  35
CRESTON *      SUNNY     43  43 100 S3        30.00S
HARLAN *       FOG       32  32 100 S6        30.02F VSB<1/4 WCI  26
LAMONI         HAZE      50  45  83 NE3       29.99R VSB<1/4
RED OAK *      MOSUNNY   41  41 100 CALM      30.02S
SHENANDOAH *   SUNNY     39  39 100 SE3       30.03S FOG
$$

IAZ047>049-059>061-072>074-084-211600-
   CENTRAL IOWA

CITY           SKY/WX    TMP DP  RH WIND       PRES   REMARKS
AMES           MOSUNNY   40  40 100 W8        29.98R WCI  34
ANKENY *       SUNNY     41  41 100 CALM      29.99R FOG
BOONE *        SUNNY     41  41 100 SW7       29.96S WCI  36
CHARITON *     SUNNY     46  45  93 CALM      29.98S
DES MOINES     MOSUNNY   45  42  89 S6        29.98S
GRINNELL *     FOG       41  40  99 CALM      29.98F VSB 3/4
KNOXVILLE *    SUNNY     45  45 100 CALM      29.97S
MARSHALLTOWN   FOG       34  34 100 S3        29.96F VSB 3/4
NEWTON *       FOG       39  39 100 CALM      29.97S VSB<1/4
PELLA *        FOG       42  41  99 CALM      29.99F VSB<1/4
PERRY *        FAIR      42  41  98 W7        29.99R WCI  37
$$

IAZ004>006-015-016-023>025-035-036-211600-
   NORTH CENTRAL IOWA

CITY           SKY/WX    TMP DP  RH WIND       PRES   REMARKS
ALGONA *       SUNNY     37  37 100 S9        29.93F WCI  31
CLARION *      FOG       36  36 100 S6        29.96S VSB 3/4 WCI  31
ESTHERVILLE    SUNNY     44  39  82 S15       29.90R WCI  37
FORT DODGE *   SUNNY     39  37  93 S6        29.96F WCI  35
MASON CITY     SUNNY     39  39 100 S6        29.95F WCI  35
FOREST CITY *  FAIR      37  37 100 SW6       29.94R FOG     WCI  33
IOWA FALLS *   FOG       39  38  97 W5        29.97S VSB 1/4 WCI  35
$$

IAZ007>011-017>019-026>030-037>042-050>054-066-211600-
   NORTHEAST IOWA

CITY           SKY/WX    TMP DP  RH WIND       PRES   REMARKS
CEDAR RAPIDS   MOSUNNY   41  41 100 CALM      29.97R FOG
CHARLES CITY * FOG       34  34 100 CALM      29.95S VSB<1/4
CLINTON *      MOSUNNY   45  45 100 NW3       29.97R FOG
DECORAH *      FOG       34  34 100 CALM      29.93F VSB<1/4
DUBUQUE        CLOUDY    45  40  82 N8        29.95S
MONTICELLO *   CLOUDY    41  41 100 CALM      29.97R FOG
OELWEIN *      FOG       32  32 100 CALM      29.95F VSB<1/4
WATERLOO       MOSUNNY   36  36 100 CALM      29.96F FOG
$$

IAZ064-065-067-068-078-211600-
   EAST CENTRAL IOWA

CITY           SKY/WX    TMP DP  RH WIND       PRES   REMARKS
DAVENPORT      CLOUDY    47  45  93 N3        29.96S
IOWA CITY      MOSUNNY   47  43  86 W3        30.00R
MUSCATINE *    MOSUNNY   46  43  87 N6        29.98R
QUAD CITIES    CLOUDY    53  45  74 CALM      29.95S
$$

IAZ062-063-075>077-085>089-095>099-211600-
   SOUTHEAST IOWA

CITY           SKY/WX    TMP DP  RH WIND       PRES   REMARKS
BURLINGTON     PTSUNNY   51  48  89 N9        29.95S
FAIRFIELD *    MOSUNNY   48  45  87 N7        29.98R
KEOKUK *       MOSUNNY   52  48  87 N3        29.95S
OTTUMWA        CLOUDY    46  45  96 NW6       29.99R
WASHINGTON *   CLOUDY    46  46 100 N6        29.99R
$$

ABBREVIATIONS USED IN REMARKS
   TC - TEMPERATURES IN CELSIUS
  WCI - WIND CHILL INDEX
   HX - HEAT INDEX
  VSB - VISIBILITY
$$




USA.gov is the U.S. government's official web portal to all federal, state and local government web resources and services.